GPS BIIRM-3 (PRN 12)

Last updated on Wed Jun 24 2026 00:03:27 GMT+0000 (Coordinated Universal Time)

1 29601U 06052A 26172.90572389 .00000037 00000+0 00000+0 0 9990 2 29601 54.9339 213.8191 0085492 90.7942 270.2511 2.00558294143503
UTC large
Height (km)
Speed (km/s)
/
Latitude / Longitude
Inclination (degrees)
Orbital Period (minutes)
Azimuth
Elevation
Range (km)
Doppler Factor

Next 0 passes for location: London (51.5072 / 0.1276)

No passes found over London.
GPS BIIRM-3 (PRN 12)